Regional Weather Roundup
Issued by NWS

Home | Current Version | Previous Version | Text Only | Print | Product List | Glossary Off
Versions: 1 2 3 4 5 6 7 8 9 10 11 12 13 14 15 16 17 18 19 20 21 22 23 24 25 26 27 28 29 30 31 32 33 34 35 36 37 38 39 40 41 42 43 44 45 46 47 48 49 50

000
ASUS44 KMEG 240610
RWRTN
TENNESSEE HOURLY STATE WEATHER ROUNDUP
NATIONAL WEATHER SERVICE MEMPHIS TN
100 AM CDT MON JUL 24 2017

TNZ002-004-019-021-049-052-054-088>092-240700-
WEST TENNESSEE

CITY           SKY/WX    TMP DP  RH WIND       PRES   REMARKS
MEMPHIS INTL   CLOUDY    76  75  97 SW3       29.89R
NWS MEMPHIS      N/A     74 N/A N/A MISG        N/A
JACKSON        CLOUDY    73  73 100 CALM      29.90S
SOMERVILLE       N/A     75  73  94 CALM      29.88R
COVINGTON      CLEAR     75  73  94 CALM      29.88R
UNION CITY     CLEAR     73  72  94 SE3       29.87F
BOLIVAR        CLEAR     75  73  94 E6        29.89S
PARIS          MOCLDY    72  70  94 CALM      29.90S
HUNTINGDON     CLOUDY    73  72  94 CALM      29.90S
LEXINGTON      CLEAR     72  72 100 CALM      29.90F
SELMER         CLEAR     75  73  94 CALM      29.90F
SAVANNAH       MOCLDY    77  75  94 CALM      29.90S
$$

TNZ008-025-027-028-033-062-065-066-240700-
NORTH MIDDLE TENNESSEE

CITY           SKY/WX    TMP DP  RH WIND       PRES   REMARKS
NASHVILLE      CLOUDY    74  69  85 S8        29.94R
PORTLAND         N/A     73  70  88 S9        29.93S
CLARKSVILLE    CLOUDY    77  72  84 CALM      29.92R
SMYRNA         CLOUDY    72  71  97 S7        29.95S THUNDER
COOKEVILLE       N/A     70  68  94 CALM      29.95F
GALLATIN       PTCLDY    73  72  94 CALM      29.96F
CROSSVILLE     CLOUDY    68  66  93 W3        29.99F
$$

TNZ061-075-076-078-094-096-097-240700-
SOUTH MIDDLE TENNESSEE

CITY           SKY/WX    TMP DP  RH WIND       PRES   REMARKS
FAYETTEVILLE   MOCLDY    75  73  94 NE12      29.94R FOG
TULLAHOMA      CLOUDY    68  66  94 N12       29.99F
WINCHESTER     CLOUDY    72  70  94 N6        29.98R
MCMINNVILLE    MOCLDY    72  72 100 CALM      29.97R
SHELBYVILLE    CLOUDY    68  68 100 CALM      29.99R FOG
$$

TNZ017-018-042-046-047-240700-
NORTHEAST TENNESSEE

CITY           SKY/WX    TMP DP  RH WIND       PRES   REMARKS
TRI CITIES     MOCLDY    72  71  97 CALM      29.96R
ELIZABETHTON   MOCLDY    73  72  94 CALM      29.97R
$$

TNZ012-013-036-069-073-074-240700-
CENTRAL EAST TENNESSEE

CITY           SKY/WX    TMP DP  RH WIND       PRES   REMARKS
KNOXVILLE      CLOUDY    70  68  93 SE5       29.94S
OAK RIDGE      CLOUDY    71  69  93 SE3       29.97R
DOWNTOWN KNOXV MOCLDY    70  70 100 CALM      29.95R
GATLINBURG     MOCLDY    68  66  94 SW6       29.97F
MORRISTOWN     MOCLDY    70  68  94 SW7G14    29.96R
JACKSBORO      CLEAR     70  68  94 CALM      29.98F
$$

TNZ083-085-099-240700-
SOUTHEAST TENNESSEE

CITY           SKY/WX    TMP DP  RH WIND       PRES   REMARKS
CHATTANOOGA    TSTM      74  69  85 N6        29.95R
DAYTON         MOCLDY    77  72  83 NW3       29.93R
$$

SKY/WX REPORTED AS FAIR MEANS FEW OR NO CLOUDS BELOW
12 THOUSAND FEET.




USA.gov is the U.S. government's official web portal to all federal, state and local government web resources and services.